Weather in Phú Quốc

Vietnam     10°16′28″N   103°59′27″E
temp.,
°C
wind,
m/s
gust,
m/s
humid.,
%
clouds,
%
prec.,
mm/h
press.,
hPa
HPBL,
m
9 may, sun
sun901:00+28sse1378100 3.1 1009288
04:00+27ese1277100 0.0 1008284
07:00+28ene1277100 0.0 1010208
10:00+31e236253 0.0 10101163
13:00+32ese3459100 0.1 10081064
16:00+31nw0160100 1.4 1006690
19:00+29wsw127383 1.6 1007146
22:00+28wsw237680 0.0 1008238
10 may, mon
mon1001:00+28sw237839 0.0 1007371
04:00+27sse2383100 0.4 1006307
07:00+28ese348071 1.9 1008532
10:00+30se447026 0.9 10101028
13:00+31se336419 1.5 10081077
16:00+31ssw12580 0.1 1006837
19:00+29ssw23730 0.2 1007242
22:00+28sw23765 0.1 1009262
11 may, tue
tue1101:00+28ssw348023 0.1 1008362
04:00+27s238232 0.0 1006339
07:00+28sse2378100 0.1 1008534
10:00+31se326884 0.4 1009999
13:00+32sse336281 0.9 10071187
16:00+31sw2259100 0.1 1005855
19:00+29wsw23775 0.1 1006228
22:00+28wsw348113 0.9 1008294
12 may, wed
wed1201:00+28sw347912 1.4 1007302
04:00+27ssw238098 0.0 1006307
07:00+28ssw127684 0.0 1008363
10:00+31ssw2164100 0.0 1009964
13:00+30ssw327068 0.5 1007871
16:00+30sw327030 0.1 1005865
19:00+28wnw45790 0.1 1005315
22:00+28w23801 0.0 1007259
13 may, thu
thu1301:00+28wsw23815 0.0 1006288
04:00+27sw238116 0.0 1005316
07:00+29ssw227421 0.0 1007560
10:00+31ssw226326 0.0 10081003
13:00+31sw326685 0.2 10061001
16:00+30sw336811 0.1 1004824
19:00+28w24775 0.1 1005300
22:00+28wsw237810 0.0 1006267